time, Switch, Flow(0), Analog(2)
yyyy/mm/dd HH:MM:SS.fff, True=FILTERED|False=TOTAL, L/min, V
2023/06/08 08:00:03.135, True, 4.380, 0.153048
2023/06/08 08:00:03.639, True, 3.978, 0.154269
2023/06/08 08:00:04.143, True, 2.989, 0.151751
2023/06/08 08:00:04.639, True, 2.355, 0.150072
2023/06/08 08:00:05.143, True, 1.989, 0.152667
2023/06/08 08:00:05.646, True, 1.990, 0.152361
2023/06/08 08:00:06.143, True, 2.022, 0.153887
2023/06/08 08:00:06.647, True, 1.658, 0.152590
2023/06/08 08:00:07.151, True, 1.992, 0.153048
2023/06/08 08:00:07.647, True, 2.020, 0.151980
2023/06/08 08:00:08.151, True, 1.658, 0.150072
2023/06/08 08:00:08.655, True, 1.993, 0.152972
2023/06/08 08:00:09.151, True, 1.686, 0.153353
2023/06/08 08:00:09.655, True, 1.986, 0.153429
2023/06/08 08:00:10.159, True, 1.990, 0.155108
2023/06/08 08:00:10.655, True, 1.685, 0.152743
2023/06/08 08:00:11.159, True, 1.988, 0.151064
2023/06/08 08:00:11.663, True, 1.991, 0.152132
2023/06/08 08:00:12.159, True, 2.021, 0.152132
2023/06/08 08:00:12.663, True, 1.659, 0.153201
2023/06/08 08:00:13.167, True, 1.989, 0.150454
2023/06/08 08:00:13.671, True, 1.988, 0.151827
2023/06/08 08:00:14.167, True, 1.685, 0.151675
2023/06/08 08:00:14.671, True, 1.994, 0.150301
2023/06/08 08:00:15.174, True, 1.655, 0.154269
2023/06/08 08:00:15.670, True, 2.022, 0.152819
2023/06/08 08:00:16.175, True, 1.992, 0.154040
2023/06/08 08:00:16.671, True, 2.022, 0.150988
2023/06/08 08:00:17.174, True, 1.987, 0.154421
2023/06/08 08:00:17.679, True, 1.990, 0.152132
2023/06/08 08:00:18.175, True, 2.021, 0.151446
2023/06/08 08:00:18.678, True, 1.989, 0.149920
2023/06/08 08:00:19.183, True, 1.661, 0.152361
2023/06/08 08:00:19.679, True, 2.019, 0.151827
2023/06/08 08:00:20.183, True, 1.989, 0.151751
2023/06/08 08:00:20.687, True, 1.658, 0.151598
2023/06/08 08:00:21.183, True, 2.025, 0.150454
2023/06/08 08:00:21.687, True, 1.986, 0.151598
2023/06/08 08:00:22.190, True, 1.990, 0.152819
2023/06/08 08:00:22.687, True, 2.022, 0.152895
2023/06/08 08:00:23.191, True, 1.989, 0.150607
2023/06/08 08:00:23.695, True, 1.990, 0.153353
2023/06/08 08:00:24.191, True, 1.685, 0.150912
2023/06/08 08:00:24.695, True, 1.990, 0.151522
2023/06/08 08:00:25.199, True, 1.658, 0.153277
2023/06/08 08:00:25.695, True, 1.685, 0.153582
2023/06/08 08:00:26.199, True, 1.989, 0.153429
2023/06/08 08:00:26.695, True, 2.022, 0.152438
2023/06/08 08:00:27.199, True, 1.990, 0.154269
2023/06/08 08:00:27.703, True, 1.989, 0.152590
2023/06/08 08:00:28.199, True, 1.686, 0.151751
2023/06/08 08:00:28.703, True, 1.988, 0.152361
2023/06/08 08:00:29.207, True, 1.989, 0.150759
2023/06/08 08:00:29.702, True, 1.685, 0.152209
2023/06/08 08:00:30.206, True, 1.990, 0.152743
2023/06/08 08:00:30.711, True, 1.990, 0.153048
2023/06/08 08:00:31.206, True, 1.684, 0.150301
2023/06/08 08:00:31.710, True, 1.990, 0.152895
2023/06/08 08:00:32.215, True, 1.990, 0.153124
2023/06/08 08:00:32.710, True, 1.685, 0.152514
2023/06/08 08:00:33.215, True, 1.990, 0.154269
2023/06/08 08:00:33.719, True, 1.658, 0.151751
2023/06/08 08:00:34.215, True, 2.021, 0.154192
2023/06/08 08:00:34.719, True, 1.658, 0.153964
2023/06/08 08:00:35.214, True, 2.022, 0.153964
2023/06/08 08:00:35.719, True, 1.992, 0.153048
2023/06/08 08:00:36.223, True, 1.658, 0.153201
2023/06/08 08:00:36.718, True, 2.019, 0.153048
2023/06/08 08:00:37.223, True, 1.990, 0.154879
2023/06/08 08:00:37.727, True, 1.661, 0.155337
2023/06/08 08:00:38.222, True, 2.022, 0.156252
2023/06/08 08:00:38.727, True, 1.986, 0.157092
2023/06/08 08:00:39.231, True, 1.993, 0.156786
2023/06/08 08:00:39.727, True, 1.684, 0.155947
2023/06/08 08:00:40.231, True, 1.987, 0.157626
2023/06/08 08:00:40.735, True, 1.993, 0.157778
2023/06/08 08:00:41.239, True, 1.658, 0.158236
2023/06/08 08:00:41.735, True, 2.018, 0.159304
2023/06/08 08:00:42.239, True, 1.990, 0.159304
2023/06/08 08:00:42.743, True, 1.990, 0.161212
2023/06/08 08:00:43.247, True, 1.992, 0.161288
2023/06/08 08:00:43.743, True, 2.019, 0.160372
2023/06/08 08:00:44.246, True, 1.660, 0.160906
2023/06/08 08:00:44.750, True, 1.988, 0.162051
2023/06/08 08:00:45.246, True, 2.023, 0.161822
2023/06/08 08:00:45.750, True, 1.657, 0.160372
2023/06/08 08:00:46.255, True, 1.990, 0.162127
2023/06/08 08:00:46.758, True, 1.991, 0.161059
2023/06/08 08:00:47.255, True, 1.684, 0.159075
2023/06/08 08:00:47.759, True, 1.988, 0.161212
2023/06/08 08:00:48.263, True, 1.989, 0.160983
2023/06/08 08:00:48.759, True, 2.022, 0.161593
2023/06/08 08:00:49.263, True, 1.990, 0.163119
2023/06/08 08:00:49.767, True, 1.661, 0.161364
2023/06/08 08:00:50.263, True, 2.018, 0.164492
2023/06/08 08:00:50.767, True, 1.660, 0.162585
2023/06/08 08:00:51.271, True, 1.987, 0.164569
2023/06/08 08:00:51.766, True, 2.022, 0.163500
2023/06/08 08:00:52.271, True, 1.658, 0.164721
2023/06/08 08:00:52.775, True, 1.989, 0.163806
2023/06/08 08:00:53.271, True, 2.024, 0.162585
2023/06/08 08:00:53.775, True, 1.988, 0.165866
2023/06/08 08:00:54.271, True, 2.022, 0.164874
2023/06/08 08:00:54.775, True, 1.990, 0.164492
2023/06/08 08:00:55.279, True, 1.990, 0.162737
2023/06/08 08:00:55.775, True, 1.686, 0.163500
2023/06/08 08:00:56.279, True, 1.988, 0.163882
2023/06/08 08:00:56.783, True, 1.990, 0.161822
2023/06/08 08:00:57.279, True, 1.685, 0.161593
2023/06/08 08:00:57.783, True, 1.990, 0.162585
2023/06/08 08:00:58.287, True, 1.992, 0.163348
2023/06/08 08:00:58.783, True, 1.685, 0.163272
2023/06/08 08:00:59.287, True, 1.987, 0.164416
2023/06/08 08:00:59.791, True, 1.990, 0.160830
2023/06/08 08:01:00.287, True, 2.022, 0.163272
2023/06/08 08:01:00.791, True, 1.989, 0.163577
2023/06/08 08:01:01.287, True, 1.687, 0.164416
2023/06/08 08:01:01.791, True, 1.987, 0.163577
2023/06/08 08:01:02.295, True, 1.990, 0.165866
2023/06/08 08:01:02.799, True, 1.989, 0.161212
2023/06/08 08:01:03.295, True, 2.022, 0.163653
2023/06/08 08:01:03.799, True, 1.658, 0.164569
2023/06/08 08:01:04.303, True, 1.990, 0.164797
2023/06/08 08:01:04.799, True, 1.685, 0.163806
2023/06/08 08:01:05.302, True, 1.990, 0.163119
2023/06/08 08:01:05.799, True, 1.685, 0.164034
2023/06/08 08:01:06.303, True, 1.990, 0.162432
2023/06/08 08:01:06.807, True, 1.991, 0.164263
2023/06/08 08:01:07.311, True, 1.988, 0.163348
2023/06/08 08:01:07.807, True, 1.685, 0.162814
2023/06/08 08:01:08.311, True, 1.990, 0.164416
2023/06/08 08:01:08.814, True, 1.658, 0.164492
2023/06/08 08:01:09.311, True, 2.022, 0.163653
2023/06/08 08:01:09.815, True, 1.658, 0.163348
2023/06/08 08:01:10.310, True, 2.022, 0.162890
2023/06/08 08:01:10.815, True, 1.990, 0.163119
2023/06/08 08:01:11.319, True, 1.658, 0.164340
2023/06/08 08:01:11.823, True, 1.989, 0.164034
2023/06/08 08:01:12.319, True, 1.685, 0.164569
2023/06/08 08:01:12.823, True, 1.990, 0.163348
2023/06/08 08:01:13.327, True, 1.989, 0.164263
2023/06/08 08:01:13.823, True, 2.022, 0.162051
2023/06/08 08:01:14.327, True, 1.659, 0.164111
2023/06/08 08:01:14.830, True, 1.989, 0.164569
2023/06/08 08:01:15.327, True, 1.685, 0.163653
2023/06/08 08:01:15.830, True, 1.991, 0.162966
2023/06/08 08:01:16.335, True, 1.657, 0.161975
2023/06/08 08:01:16.831, True, 1.685, 0.165332
2023/06/08 08:01:17.335, True, 1.990, 0.164645
2023/06/08 08:01:17.839, True, 1.988, 0.164263
2023/06/08 08:01:18.334, True, 2.022, 0.162127
2023/06/08 08:01:18.839, True, 1.659, 0.163348
2023/06/08 08:01:19.342, True, 1.988, 0.163348
2023/06/08 08:01:19.839, True, 2.023, 0.160983
2023/06/08 08:01:20.343, True, 1.989, 0.161822
2023/06/08 08:01:20.847, True, 1.990, 0.161212
2023/06/08 08:01:21.351, True, 1.658, 0.163806
2023/06/08 08:01:21.847, True, 2.022, 0.161593
2023/06/08 08:01:22.351, True, 1.990, 0.165866
2023/06/08 08:01:22.855, True, 1.660, 0.161746
2023/06/08 08:01:23.351, True, 2.020, 0.161440
2023/06/08 08:01:23.855, True, 1.989, 0.164492
2023/06/08 08:01:24.359, True, 1.990, 0.162356
2023/06/08 08:01:24.855, True, 2.021, 0.161593
2023/06/08 08:01:25.359, True, 1.658, 0.161898
2023/06/08 08:01:25.863, True, 1.990, 0.160296
2023/06/08 08:01:26.359, True, 2.022, 0.161822
2023/06/08 08:01:26.862, True, 1.990, 0.164492
2023/06/08 08:01:27.367, True, 1.658, 0.163348
2023/06/08 08:01:27.863, True, 2.022, 0.160906
2023/06/08 08:01:28.367, True, 1.990, 0.161975
2023/06/08 08:01:28.862, True, 2.022, 0.163729
2023/06/08 08:01:29.367, True, 1.990, 0.162585
2023/06/08 08:01:29.870, True, 1.658, 0.161059
2023/06/08 08:01:30.367, True, 2.022, 0.162509
2023/06/08 08:01:30.871, True, 1.990, 0.163272
2023/06/08 08:01:31.375, True, 1.990, 0.162966
2023/06/08 08:01:31.871, True, 1.685, 0.161975
2023/06/08 08:01:32.375, True, 1.990, 0.160372
2023/06/08 08:01:32.879, True, 1.658, 0.161822
2023/06/08 08:01:33.374, True, 2.022, 0.160678
2023/06/08 08:01:33.879, True, 1.658, 0.160449
2023/06/08 08:01:34.383, True, 1.990, 0.161593
2023/06/08 08:01:34.879, True, 2.022, 0.163500
2023/06/08 08:01:35.383, True, 1.658, 0.161364
2023/06/08 08:01:35.879, True, 2.022, 0.161440
2023/06/08 08:01:36.383, True, 1.989, 0.161746
2023/06/08 08:01:36.887, True, 1.659, 0.162356
2023/06/08 08:01:37.383, True, 2.020, 0.163195
2023/06/08 08:01:37.887, True, 1.658, 0.162280
2023/06/08 08:01:38.391, True, 1.990, 0.163272
2023/06/08 08:01:38.886, True, 2.023, 0.163195
2023/06/08 08:01:39.391, True, 1.658, 0.161669
2023/06/08 08:01:39.895, True, 1.989, 0.162509
2023/06/08 08:01:40.391, True, 2.022, 0.160830
2023/06/08 08:01:40.895, True, 1.658, 0.162127
2023/06/08 08:01:41.399, True, 1.990, 0.161975
2023/06/08 08:01:41.903, True, 1.990, 0.160296
2023/06/08 08:01:42.398, True, 1.685, 0.160601
2023/06/08 08:01:42.903, True, 1.990, 0.161746
2023/06/08 08:01:43.399, True, 2.022, 0.161669
2023/06/08 08:01:43.903, True, 1.989, 0.162585
2023/06/08 08:01:44.407, True, 1.658, 0.162585
2023/06/08 08:01:44.903, True, 2.022, 0.163729
2023/06/08 08:01:45.407, True, 1.658, 0.163119
2023/06/08 08:01:45.911, True, 1.990, 0.160525
2023/06/08 08:01:46.407, True, 1.685, 0.161288
2023/06/08 08:01:46.911, True, 1.990, 0.162356
2023/06/08 08:01:47.415, True, 1.658, 0.161440
2023/06/08 08:01:47.911, True, 2.022, 0.161440
2023/06/08 08:01:48.415, True, 1.990, 0.160143
2023/06/08 08:01:48.919, True, 1.990, 0.159609
2023/06/08 08:01:49.423, True, 1.658, 0.160525
2023/06/08 08:01:49.919, True, 2.022, 0.162509
2023/06/08 08:01:50.423, True, 1.990, 0.161746
2023/06/08 08:01:50.919, True, 1.685, 0.160983
2023/06/08 08:01:51.423, True, 1.990, 0.163424
2023/06/08 08:01:51.927, True, 1.990, 0.160220
2023/06/08 08:01:52.423, True, 1.686, 0.160678
2023/06/08 08:01:52.927, True, 1.656, 0.162051
2023/06/08 08:01:53.431, True, 1.990, 0.162280
2023/06/08 08:01:53.927, True, 1.685, 0.160601
2023/06/08 08:01:54.431, True, 1.990, 0.161059
2023/06/08 08:01:54.935, True, 1.989, 0.162432
2023/06/08 08:01:55.431, True, 1.685, 0.161898
2023/06/08 08:01:55.935, True, 1.990, 0.161746
2023/06/08 08:01:56.439, True, 1.990, 0.160220
2023/06/08 08:01:56.935, True, 1.684, 0.161288
2023/06/08 08:01:57.439, True, 1.990, 0.161517
2023/06/08 08:01:57.943, True, 1.658, 0.162585
2023/06/08 08:01:58.439, True, 2.022, 0.160296
2023/06/08 08:01:58.943, True, 1.658, 0.161517
2023/06/08 08:01:59.439, True, 2.021, 0.159304
2023/06/08 08:01:59.943, True, 1.660, 0.162890
2023/06/08 08:02:00.447, True, 1.988, 0.160372
2023/06/08 08:02:00.943, True, 2.022, 0.161288
2023/06/08 08:02:01.447, True, 1.658, 0.159533
2023/06/08 08:02:01.951, True, 1.990, 0.162051
2023/06/08 08:02:02.447, True, 2.022, 0.161212
2023/06/08 08:02:02.950, True, 1.658, 0.160449
2023/06/08 08:02:03.455, True, 1.990, 0.160678
2023/06/08 08:02:03.951, True, 1.685, 0.159609
2023/06/08 08:02:04.454, True, 1.658, 0.158312
2023/06/08 08:02:04.950, True, 2.022, 0.161440
2023/06/08 08:02:05.455, True, 1.658, 0.160601
2023/06/08 08:02:05.958, True, 1.658, 0.160678
2023/06/08 08:02:06.454, True, 2.022, 0.159228
2023/06/08 08:02:06.959, True, 1.658, 0.160754
2023/06/08 08:02:07.463, True, 1.658, 0.160143
2023/06/08 08:02:07.958, True, 1.684, 0.158846
2023/06/08 08:02:08.462, True, 1.658, 0.162051
2023/06/08 08:02:08.967, True, 1.658, 0.158465
2023/06/08 08:02:09.471, True, 1.989, 0.159838
2023/06/08 08:02:09.966, True, 1.685, 0.160449
2023/06/08 08:02:10.471, True, 1.658, 0.159838
2023/06/08 08:02:10.975, True, 1.659, 0.159228
2023/06/08 08:02:11.470, True, 2.019, 0.158541
2023/06/08 08:02:11.975, True, 1.658, 0.159304
2023/06/08 08:02:12.479, True, 1.991, 0.162051
2023/06/08 08:02:12.983, True, 1.657, 0.159533
2023/06/08 08:02:13.478, True, 1.685, 0.160830
2023/06/08 08:02:13.982, True, 1.993, 0.162814
2023/06/08 08:02:14.487, True, 1.655, 0.159380
2023/06/08 08:02:14.982, True, 1.685, 0.160449
2023/06/08 08:02:15.487, True, 1.992, 0.158618
2023/06/08 08:02:15.991, True, 1.658, 0.159228
2023/06/08 08:02:16.487, True, 1.682, 0.161746
2023/06/08 08:02:16.991, True, 1.990, 0.160220
2023/06/08 08:02:17.495, True, 1.658, 0.159609
2023/06/08 08:02:17.991, True, 1.687, 0.160525
2023/06/08 08:02:18.495, True, 1.656, 0.160601
2023/06/08 08:02:18.999, True, 1.990, 0.158389
2023/06/08 08:02:19.495, True, 1.687, 0.160906
2023/06/08 08:02:19.999, True, 1.990, 0.159762
2023/06/08 08:02:20.503, True, 1.655, 0.158312
2023/06/08 08:02:21.007, True, 1.661, 0.159152
2023/06/08 08:02:21.503, True, 1.682, 0.158770
2023/06/08 08:02:22.007, True, 1.658, 0.158465
2023/06/08 08:02:22.510, True, 1.991, 0.160678
2023/06/08 08:02:23.006, True, 1.684, 0.160143
2023/06/08 08:02:23.511, True, 1.657, 0.158083
2023/06/08 08:02:24.014, True, 1.989, 0.158846
2023/06/08 08:02:24.510, True, 1.685, 0.159686
2023/06/08 08:02:25.015, True, 1.659, 0.157702
2023/06/08 08:02:25.511, True, 1.684, 0.159457
2023/06/08 08:02:26.015, True, 1.658, 0.160525
2023/06/08 08:02:26.519, True, 1.989, 0.158694
2023/06/08 08:02:27.015, True, 1.686, 0.161212
2023/06/08 08:02:27.519, True, 1.657, 0.161288
2023/06/08 08:02:28.023, True, 1.659, 0.160372
2023/06/08 08:02:28.519, True, 1.685, 0.158618
2023/06/08 08:02:29.023, True, 1.989, 0.158541
2023/06/08 08:02:29.527, True, 1.658, 0.159304
2023/06/08 08:02:30.023, True, 1.685, 0.159686
2023/06/08 08:02:30.527, True, 1.661, 0.159609
2023/06/08 08:02:31.031, True, 1.986, 0.159609
2023/06/08 08:02:31.527, True, 1.685, 0.157473
2023/06/08 08:02:32.031, True, 1.658, 0.158160
2023/06/08 08:02:32.534, True, 1.993, 0.157473
2023/06/08 08:02:33.031, True, 1.682, 0.159457
2023/06/08 08:02:33.535, True, 1.658, 0.158007
2023/06/08 08:02:34.039, True, 1.990, 0.158007
2023/06/08 08:02:34.535, True, 2.021, 0.158236
2023/06/08 08:02:35.038, True, 1.661, 0.159533
2023/06/08 08:02:35.543, True, 1.655, 0.158312
2023/06/08 08:02:36.039, True, 1.688, 0.159380
2023/06/08 08:02:36.543, True, 1.985, 0.158541
2023/06/08 08:02:37.047, True, 1.658, 0.158083
2023/06/08 08:02:37.551, True, 1.658, 0.155947
2023/06/08 08:02:38.047, True, 1.685, 0.159457
2023/06/08 08:02:38.551, True, 1.658, 0.159533
2023/06/08 08:02:39.055, True, 1.990, 0.159838
2023/06/08 08:02:39.551, True, 1.686, 0.158083
2023/06/08 08:02:40.055, True, 1.658, 0.158618
2023/06/08 08:02:40.558, True, 1.658, 0.160296
2023/06/08 08:02:41.055, True, 1.685, 0.157855
2023/06/08 08:02:41.559, True, 1.658, 0.157397
2023/06/08 08:02:42.063, True, 1.993, 0.158083
2023/06/08 08:02:42.567, True, 1.656, 0.157473
2023/06/08 08:02:43.063, True, 1.685, 0.158618
2023/06/08 08:02:43.567, True, 1.990, 0.158465
2023/06/08 08:02:44.063, True, 1.685, 0.157855
2023/06/08 08:02:44.567, True, 1.659, 0.157855
2023/06/08 08:02:45.070, True, 1.989, 0.157626
2023/06/08 08:02:45.567, True, 1.684, 0.155795
2023/06/08 08:02:46.070, True, 1.990, 0.157855
2023/06/08 08:02:46.575, True, 1.658, 0.157702
2023/06/08 08:02:47.079, True, 1.993, 0.157168
2023/06/08 08:02:47.575, True, 1.684, 0.157473
2023/06/08 08:02:48.079, True, 1.987, 0.160067
2023/06/08 08:02:48.583, True, 1.658, 0.159380
2023/06/08 08:02:49.078, True, 2.024, 0.158465
2023/06/08 08:02:49.582, True, 1.658, 0.157855
2023/06/08 08:02:50.086, True, 1.987, 0.158160
2023/06/08 08:02:50.583, True, 1.685, 0.156786
2023/06/08 08:02:51.087, True, 1.990, 0.158541
2023/06/08 08:02:51.591, True, 1.658, 0.156634
2023/06/08 08:02:52.087, True, 2.022, 0.156710
2023/06/08 08:02:52.590, True, 1.658, 0.158389
2023/06/08 08:02:53.095, True, 1.990, 0.158160
2023/06/08 08:02:53.590, True, 1.685, 0.157931
2023/06/08 08:02:54.095, True, 1.990, 0.155413
2023/06/08 08:02:54.599, True, 1.659, 0.159762
2023/06/08 08:02:55.095, True, 1.683, 0.158999
2023/06/08 08:02:55.599, True, 1.659, 0.158846
2023/06/08 08:02:56.103, True, 1.989, 0.156023
2023/06/08 08:02:56.599, True, 1.686, 0.156710
2023/06/08 08:02:57.103, True, 1.657, 0.158465
2023/06/08 08:02:57.607, True, 1.658, 0.156786
2023/06/08 08:02:58.103, True, 1.684, 0.156100
2023/06/08 08:02:58.607, True, 1.989, 0.156786
2023/06/08 08:02:59.111, True, 1.658, 0.158541
2023/06/08 08:02:59.607, True, 1.348, 0.158160
2023/06/08 08:03:00.111, True, 1.990, 0.156634
2023/06/08 08:03:00.615, True, 1.659, 0.157092
2023/06/08 08:03:01.111, True, 1.684, 0.157549
2023/06/08 08:03:01.615, True, 1.657, 0.157092
2023/06/08 08:03:02.119, True, 1.990, 0.159228
2023/06/08 08:03:02.615, True, 1.684, 0.156634
2023/06/08 08:03:03.119, True, 1.658, 0.158312
2023/06/08 08:03:03.615, True, 2.022, 0.157626
2023/06/08 08:03:04.119, True, 1.658, 0.156558
2023/06/08 08:03:04.622, True, 1.658, 0.158083
2023/06/08 08:03:05.119, True, 2.022, 0.156939
2023/06/08 08:03:05.623, True, 1.658, 0.156405
2023/06/08 08:03:06.127, True, 1.658, 0.156634
2023/06/08 08:03:06.631, True, 1.990, 0.159609
2023/06/08 08:03:07.127, True, 1.688, 0.158923
2023/06/08 08:03:07.631, True, 1.655, 0.157092
2023/06/08 08:03:08.127, True, 2.022, 0.156939
2023/06/08 08:03:08.631, True, 1.658, 0.157855
2023/06/08 08:03:09.135, True, 1.658, 0.158236
2023/06/08 08:03:09.631, True, 1.685, 0.156710
2023/06/08 08:03:10.135, True, 1.990, 0.157702
2023/06/08 08:03:10.639, True, 1.659, 0.158160
2023/06/08 08:03:11.135, True, 2.023, 0.158770
2023/06/08 08:03:11.639, True, 1.987, 0.158083
2023/06/08 08:03:12.143, True, 1.658, 0.158465
2023/06/08 08:03:12.639, True, 1.684, 0.158465
2023/06/08 08:03:13.142, True, 1.662, 0.157244
2023/06/08 08:03:13.647, True, 1.986, 0.156939
2023/06/08 08:03:14.142, True, 1.684, 0.156100
2023/06/08 08:03:14.647, True, 1.991, 0.159380
2023/06/08 08:03:15.151, True, 1.657, 0.156863
2023/06/08 08:03:15.647, True, 2.022, 0.157244
2023/06/08 08:03:16.150, True, 1.658, 0.158389
2023/06/08 08:03:16.655, True, 1.658, 0.157626
2023/06/08 08:03:17.151, True, 1.685, 0.157244
2023/06/08 08:03:17.655, True, 1.989, 0.155871
2023/06/08 08:03:18.159, True, 1.658, 0.156023
2023/06/08 08:03:18.655, True, 2.022, 0.156100
2023/06/08 08:03:19.159, True, 1.658, 0.158694
2023/06/08 08:03:19.663, True, 1.990, 0.158541
2023/06/08 08:03:20.159, True, 1.688, 0.157397
2023/06/08 08:03:20.662, True, 1.986, 0.158770
2023/06/08 08:03:21.167, True, 1.658, 0.156786
2023/06/08 08:03:21.663, True, 1.685, 0.158694
2023/06/08 08:03:22.166, True, 1.990, 0.156558
2023/06/08 08:03:22.671, True, 1.989, 0.156634
2023/06/08 08:03:23.167, True, 1.685, 0.156100
2023/06/08 08:03:23.671, True, 1.658, 0.156405
2023/06/08 08:03:24.175, True, 1.661, 0.155795
2023/06/08 08:03:24.671, True, 1.682, 0.155718
2023/06/08 08:03:25.174, True, 1.989, 0.155184
2023/06/08 08:03:25.678, True, 1.658, 0.158007
2023/06/08 08:03:26.174, True, 2.022, 0.157626
2023/06/08 08:03:26.678, True, 1.658, 0.156863
2023/06/08 08:03:27.174, True, 1.685, 0.155032
2023/06/08 08:03:27.678, True, 1.658, 0.156558
2023/06/08 08:03:28.182, True, 1.989, 0.155947
2023/06/08 08:03:28.678, True, 1.685, 0.156023
2023/06/08 08:03:29.182, True, 1.658, 0.156252
2023/06/08 08:03:29.686, True, 1.657, 0.157473
2023/06/08 08:03:30.182, True, 1.685, 0.158083
2023/06/08 08:03:30.687, True, 1.990, 0.154116
2023/06/08 08:03:31.190, True, 1.989, 0.155947
2023/06/08 08:03:31.694, True, 1.658, 0.157397
2023/06/08 08:03:32.191, True, 2.022, 0.156100
2023/06/08 08:03:32.694, True, 1.657, 0.156558
2023/06/08 08:03:33.198, True, 1.658, 0.156481
2023/06/08 08:03:33.694, True, 2.022, 0.156405
2023/06/08 08:03:34.198, True, 1.658, 0.157244
2023/06/08 08:03:34.702, True, 1.659, 0.157168
2023/06/08 08:03:35.198, True, 2.020, 0.157473
2023/06/08 08:03:35.703, True, 1.658, 0.155413
2023/06/08 08:03:36.198, True, 1.685, 0.156710
2023/06/08 08:03:36.702, True, 1.990, 0.157778
2023/06/08 08:03:37.206, True, 1.658, 0.156405
2023/06/08 08:03:37.702, True, 1.685, 0.155718
2023/06/08 08:03:38.206, True, 1.990, 0.156100
2023/06/08 08:03:38.710, True, 1.658, 0.154955
2023/06/08 08:03:39.206, True, 1.687, 0.154269
2023/06/08 08:03:39.711, True, 1.656, 0.155489
2023/06/08 08:03:40.214, True, 1.658, 0.157015
2023/06/08 08:03:40.710, True, 1.685, 0.155947
2023/06/08 08:03:41.214, True, 1.990, 0.156176
2023/06/08 08:03:41.719, True, 1.660, 0.156634
2023/06/08 08:03:42.213, True, 1.682, 0.155108
2023/06/08 08:03:42.719, True, 1.658, 0.156634
2023/06/08 08:03:43.222, True, 1.990, 0.154955
2023/06/08 08:03:43.719, True, 1.688, 0.155184
2023/06/08 08:03:44.222, True, 1.986, 0.155032
2023/06/08 08:03:44.727, True, 1.661, 0.155413
2023/06/08 08:03:45.222, True, 1.685, 0.156100
2023/06/08 08:03:45.726, True, 1.989, 0.156863
2023/06/08 08:03:46.230, True, 1.988, 0.154955
2023/06/08 08:03:46.726, True, 1.687, 0.157244
2023/06/08 08:03:47.230, True, 1.327, 0.156863
2023/06/08 08:03:47.734, True, 1.655, 0.157855
2023/06/08 08:03:48.231, True, 1.684, 0.156634
2023/06/08 08:03:48.734, True, 1.990, 0.156481
2023/06/08 08:03:49.238, True, 1.658, 0.157855
2023/06/08 08:03:49.734, True, 1.685, 0.156252
2023/06/08 08:03:50.238, True, 1.660, 0.157473
2023/06/08 08:03:50.742, True, 1.988, 0.155718
2023/06/08 08:03:51.239, True, 1.687, 0.155718
2023/06/08 08:03:51.742, True, 1.658, 0.156786
2023/06/08 08:03:52.238, True, 2.023, 0.158160
2023/06/08 08:03:52.742, True, 1.655, 0.160067
2023/06/08 08:03:53.246, True, 1.658, 0.155566
2023/06/08 08:03:53.742, True, 2.023, 0.157321
2023/06/08 08:03:54.246, True, 1.658, 0.156100
2023/06/08 08:03:54.750, True, 1.658, 0.158007
2023/06/08 08:03:55.246, True, 1.683, 0.155566
2023/06/08 08:03:55.750, True, 1.658, 0.156405
2023/06/08 08:03:56.254, True, 1.659, 0.156176
2023/06/08 08:03:56.750, True, 2.020, 0.158389
2023/06/08 08:03:57.254, True, 1.658, 0.157168
2023/06/08 08:03:57.758, True, 1.658, 0.156100
2023/06/08 08:03:58.255, True, 1.685, 0.156100
2023/06/08 08:03:58.758, True, 1.990, 0.156863
2023/06/08 08:03:59.263, True, 1.658, 0.155642
2023/06/08 08:03:59.758, True, 1.685, 0.154269
2023/06/08 08:04:00.262, True, 1.658, 0.156786
2023/06/08 08:04:00.766, True, 1.658, 0.154574
2023/06/08 08:04:01.262, True, 2.022, 0.153353
2023/06/08 08:04:01.766, True, 1.657, 0.154803
2023/06/08 08:04:02.262, True, 1.685, 0.154726
2023/06/08 08:04:02.766, True, 1.658, 0.155032
2023/06/08 08:04:03.270, True, 1.990, 0.155032
2023/06/08 08:04:03.766, True, 1.684, 0.152667
2023/06/08 08:04:04.270, True, 1.658, 0.154421
2023/06/08 08:04:04.774, True, 1.658, 0.155566
2023/06/08 08:04:05.270, True, 1.685, 0.154116
2023/06/08 08:04:05.775, True, 1.989, 0.157549
2023/06/08 08:04:06.279, True, 1.658, 0.155032
2023/06/08 08:04:06.774, True, 2.022, 0.155489
2023/06/08 08:04:07.278, True, 1.660, 0.153735
2023/06/08 08:04:07.781, True, 1.656, 0.155032
2023/06/08 08:04:08.278, True, 1.684, 0.155261
2023/06/08 08:04:08.782, True, 1.658, 0.156023
2023/06/08 08:04:09.286, True, 1.658, 0.156558
2023/06/08 08:04:09.782, True, 1.685, 0.156176
2023/06/08 08:04:10.287, True, 1.990, 0.156100
2023/06/08 08:04:10.782, True, 1.685, 0.156634
2023/06/08 08:04:11.286, True, 1.660, 0.154650
2023/06/08 08:04:11.790, True, 1.655, 0.154040
2023/06/08 08:04:12.287, True, 1.687, 0.156863